QPF
0.00 0.00 0.00 0.00 0.00 0.00 0.00 0.00 0.00 0.00 0.00 0.00 0.00 0.00 0.00 0.00 0.00 0.01 0.00 0.00 0.00 0.00 0.00 0.00 0.01 0.01 0.01 0.01 0.01 0.01 0.01 0.01 0.01 0.01 0.01 0.01 0.01 0.01 0.01 0.01 0.02 0.03 0.04 0.05 0.06 0.05 0.05 0.04 0.03
0.00 0.00 0.00 0.00 0.00 0.00 0.00 0.00 0.00 0.00 0.00 0.00 0.00 0.00 0.00 0.00 0.00 0.00 0.00 0.00 0.00 0.00 0.00 0.00 0.00 0.01 0.02 0.02 0.02 0.02 0.01 0.01 0.01 0.00 0.00 0.00 0.01 0.01 0.02 0.02 0.03 0.03 0.04 0.04 0.04 0.03 0.03 0.02 0.01
0.00 0.00 0.00 0.00 0.00 0.00 0.00 0.00 0.00 0.00 0.00 0.00 0.00 0.00 0.00 0.00 0.00 0.00 0.00 0.00 0.00 0.00 0.00 0.00 0.00 0.01 0.02 0.02 0.02 0.02 0.01 0.01 0.01 0.01 0.01 0.00 0.00 0.01 0.01 0.02 0.02 0.02 0.03 0.02 0.02 0.02 0.01 0.01 0.01
0.00 0.00 0.00 0.00 0.00 0.00 0.00 0.00 0.00 0.00 0.00 0.00 0.00 0.00 0.00 0.00 0.00 0.00 0.00 0.00 0.00 0.00 0.00 0.00 0.00 0.01 0.01 0.01 0.01 0.01 0.01 0.01 0.01 0.01 0.02 0.01 0.01 0.01 0.01 0.02 0.03 0.04 0.03 0.03 0.02 0.02 0.01 0.01 0.00
0.00 0.00 0.00 0.00 0.00 0.00 0.00 0.00 0.00 0.00 0.00 0.00 0.00 0.00 0.00 0.00 0.00 0.00 0.00 0.00 0.00 0.00 0.00 0.00 0.00 0.01 0.01 0.01 0.01 0.01 0.01 0.01 0.01 0.02 0.02 0.01 0.01 0.01 0.02 0.03 0.03 0.03 0.03 0.03 0.03 0.03 0.02 0.01 0.00
0.00 0.00 0.00 0.00 0.00 0.00 0.00 0.00 0.00 0.00 0.00 0.00 0.00 0.00 0.00 0.00 0.00 0.00 0.00 0.00 0.00 0.00 0.00 0.00 0.00 0.01 0.00 0.01 0.01 0.01 0.01 0.01 0.01 0.02 0.01 0.01 0.01 0.01 0.01 0.02 0.02 0.02 0.02 0.02 0.02 0.02 0.01 0.00 0.00
0.00 0.00 0.00 0.00 0.00 0.00 0.00 0.00 0.00 0.00 0.00 0.00 0.00 0.00 0.00 0.00 0.00 0.00 0.00 0.00 0.00 0.00 0.00 0.00 0.00 0.01 0.01 0.01 0.01 0.01 0.01 0.01 0.01 0.01 0.01 0.00 0.00 0.01 0.01 0.01 0.01 0.01 0.01 0.01 0.01 0.01 0.00 0.00 0.00
0.00 0.00 0.00 0.00 0.00 0.00 0.00 0.00 0.00 0.00 0.00 0.00 0.00 0.00 0.00 0.00 0.00 0.00 0.00 0.00 0.00 0.00 0.00 0.00 0.00 0.00 0.00 0.01 0.01 0.00 0.00 0.00 0.00 0.00 0.00 0.00 0.00 0.01 0.01 0.01 0.00 0.00 0.00 0.00 0.00 0.00 0.00 0.00 0.00
0.00 0.00 0.00 0.00 0.00 0.00 0.00 0.00 0.00 0.00 0.00 0.00 0.00 0.00 0.00 0.00 0.00 0.00 0.00 0.00 0.00 0.00 0.00 0.00 0.00 0.00 0.00 0.00 0.00 0.00 0.00 0.00 0.00 0.00 0.00 0.00 0.01 0.00 0.01 0.00 0.00 0.00 0.00 0.00 0.00 0.00 0.00 0.00 0.00
0.00 0.00 0.00 0.00 0.00 0.00 0.00 0.00 0.00 0.00 0.00 0.00 0.00 0.00 0.00 0.00 0.00 0.00 0.00 0.00 0.00 0.00 0.00 0.00 0.00 0.00 0.00 0.00 0.00 0.00 0.00 0.00 0.00 0.00 0.00 0.00 0.01 0.01 0.00 0.00 0.00 0.00 0.00 0.00 0.00 0.00 0.00 0.00 0.00
0.00 0.00 0.00 0.00 0.00 0.00 0.00 0.00 0.00 0.00 0.00 0.00 0.00 0.00 0.00 0.00 0.00 0.00 0.00 0.00 0.00 0.00 0.00 0.00 0.00 0.00 0.00 0.00 0.00 0.00 0.00 0.00 0.00 0.00 0.00 0.01 0.01 0.00 0.00 0.00 0.00 0.00 0.00 0.00 0.00 0.00 0.00 0.00 0.00
0.00 0.00 0.00 0.00 0.00 0.00 0.00 0.00 0.00 0.00 0.00 0.00 0.00 0.00 0.00 0.00 0.00 0.00 0.00 0.00 0.00 0.00 0.00 0.00 0.00 0.00 0.00 0.00 0.00 0.00 0.00 0.00 0.00 0.00 0.00 0.00 0.01 0.01 0.01 0.01 0.00 0.00 0.00 0.00 0.00 0.00 0.00 0.00 0.00
0.00 0.00 0.00 0.00 0.00 0.00 0.00 0.00 0.00 0.00 0.00 0.00 0.00 0.00 0.00 0.00 0.00 0.00 0.00 0.00 0.00 0.00 0.00 0.00 0.00 0.00 0.00 0.00 0.00 0.00 0.00 0.00 0.00 0.00 0.00 0.00 0.00 0.01 0.01 0.01 0.01 0.00 0.00 0.00 0.00 0.00 0.00 0.00 0.00
0.00 0.00 0.00 0.00 0.00 0.00 0.00 0.00 0.00 0.00 0.00 0.00 0.00 0.00 0.00 0.00 0.00 0.00 0.00 0.00 0.00 0.00 0.00 0.00 0.00 0.00 0.00 0.00 0.00 0.00 0.00 0.00 0.00 0.00 0.00 0.00 0.01 0.01 0.01 0.01 0.01 0.01 0.00 0.00 0.00 0.00 0.00 0.00 0.00
0.00 0.00 0.00 0.00 0.00 0.00 0.00 0.00 0.00 0.00 0.00 0.00 0.00 0.00 0.00 0.00 0.00 0.00 0.00 0.00 0.00 0.00 0.00 0.00 0.00 0.00 0.00 0.00 0.00 0.00 0.00 0.00 0.00 0.01 0.01 0.01 0.01 0.01 0.01 0.01 0.01 0.00 0.00 0.00 0.00 0.00 0.00 0.00 0.00
0.00 0.00 0.00 0.00 0.00 0.00 0.00 0.00 0.00 0.00 0.00 0.00 0.00 0.00 0.00 0.00 0.00 0.00 0.00 0.00 0.00 0.00 0.00 0.00 0.00 0.00 0.00 0.00 0.00 0.00 0.00 0.00 0.00 0.00 0.01 0.00 0.00 0.00 0.00 0.00 0.00 0.00 0.00 0.00 0.00 0.00 0.00 0.00 0.00
0.00 0.00 0.00 0.00 0.00 0.00 0.00 0.00 0.00 0.00 0.00 0.00 0.00 0.00 0.00 0.00 0.00 0.00 0.00 0.01 0.00 0.00 0.00 0.00 0.00 0.00 0.00 0.00 0.00 0.00 0.00 0.01 0.01 0.01 0.01 0.00 0.00 0.00 0.00 0.00 0.00 0.00 0.00 0.00 0.00 0.00 0.00 0.00 0.00
0.00 0.00 0.00 0.00 0.00 0.00 0.00 0.00 0.00 0.00 0.00 0.00 0.00 0.00 0.00 0.00 0.00 0.01 0.01 0.02 0.01 0.01 0.02 0.02 0.01 0.01 0.01 0.01 0.00 0.01 0.01 0.01 0.01 0.00 0.00 0.00 0.00 0.00 0.00 0.00 0.00 0.00 0.00 0.00 0.00 0.00 0.00 0.00 0.00
0.00 0.00 0.00 0.00 0.00 0.00 0.00 0.00 0.00 0.00 0.00 0.00 0.00 0.00 0.00 0.00 0.00 0.01 0.03 0.04 0.04 0.04 0.05 0.04 0.02 0.03 0.04 0.02 0.02 0.01 0.01 0.01 0.01 0.00 0.00 0.00 0.00 0.00 0.00 0.00 0.00 0.00 0.00 0.00 0.00 0.00 0.00 0.00 0.00
0.00 0.00 0.00 0.00 0.00 0.00 0.00 0.00 0.00 0.00 0.00 0.00 0.00 0.00 0.00 0.00 0.01 0.02 0.04 0.05 0.07 0.08 0.08 0.08 0.06 0.07 0.06 0.04 0.03 0.02 0.02 0.01 0.00 0.00 0.00 0.00 0.00 0.00 0.00 0.00 0.00 0.00 0.00 0.00 0.00 0.00 0.00 0.00 0.00
0.00 0.00 0.00 0.00 0.00 0.00 0.00 0.00 0.00 0.00 0.00 0.00 0.00 0.00 0.00 0.01 0.02 0.03 0.04 0.07 0.10 0.11 0.13 0.14 0.12 0.09 0.07 0.06 0.04 0.03 0.02 0.01 0.01 0.00 0.00 0.00 0.00 0.00 0.00 0.00 0.00 0.00 0.00 0.00 0.00 0.00 0.00 0.00 0.00
0.00 0.00 0.00 0.00 0.00 0.00 0.00 0.00 0.00 0.00 0.00 0.00 0.00 0.00 0.00 0.01 0.01 0.03 0.04 0.08 0.13 0.15 0.16 0.17 0.14 0.11 0.09 0.07 0.05 0.04 0.03 0.02 0.01 0.00 0.00 0.00 0.00 0.00 0.00 0.00 0.00 0.00 0.00 0.00 0.00 0.00 0.00 0.00 0.00
0.00 0.00 0.00 0.00 0.00 0.00 0.00 0.00 0.00 0.00 0.00 0.00 0.00 0.00 0.00 0.00 0.01 0.03 0.04 0.08 0.13 0.15 0.17 0.17 0.14 0.11 0.09 0.06 0.05 0.04 0.02 0.01 0.01 0.00 0.00 0.00 0.00 0.00 0.00 0.00 0.00 0.00 0.00 0.00 0.00 0.00 0.00 0.00 0.00
0.00 0.00 0.00 0.00 0.00 0.00 0.00 0.00 0.00 0.00 0.00 0.00 0.00 0.00 0.00 0.00 0.01 0.02 0.04 0.07 0.11 0.12 0.12 0.12 0.10 0.09 0.07 0.05 0.04 0.03 0.01 0.01 0.00 0.00 0.00 0.00 0.00 0.00 0.00 0.00 0.00 0.00 0.00 0.00 0.00 0.00 0.00 0.00 0.00
0.00 0.00 0.00 0.00 0.00 0.00 0.00 0.00 0.00 0.00 0.00 0.00 0.00 0.00 0.00 0.00 0.01 0.02 0.04 0.06 0.08 0.09 0.08 0.09 0.08 0.07 0.05 0.03 0.03 0.02 0.01 0.00 0.00 0.00 0.00 0.00 0.00 0.00 0.00 0.00 0.00 0.00 0.00 0.00 0.00 0.00 0.00 0.00 0.00
0.00 0.00 0.00 0.00 0.00 0.00 0.00 0.00 0.00 0.00 0.00 0.00 0.00 0.00 0.00 0.00 0.01 0.02 0.04 0.05 0.05 0.06 0.07 0.07 0.06 0.04 0.03 0.02 0.01 0.01 0.00 0.00 0.00 0.00 0.00 0.00 0.00 0.00 0.00 0.00 0.00 0.00 0.00 0.00 0.00 0.00 0.00 0.00 0.00
0.00 0.00 0.00 0.00 0.00 0.00 0.00 0.00 0.00 0.00 0.00 0.00 0.00 0.00 0.00 0.00 0.00 0.01 0.03 0.03 0.04 0.05 0.06 0.05 0.04 0.03 0.02 0.01 0.00 0.00 0.00 0.00 0.00 0.00 0.00 0.00 0.00 0.00 0.00 0.00 0.00 0.00 0.00 0.00 0.00 0.00 0.00 0.00 0.00
0.00 0.00 0.00 0.00 0.00 0.00 0.00 0.00 0.00 0.00 0.00 0.00 0.00 0.00 0.00 0.00 0.01 0.01 0.03 0.03 0.03 0.05 0.06 0.05 0.03 0.02 0.01 0.01 0.00 0.00 0.00 0.00 0.00 0.00 0.00 0.00 0.00 0.00 0.00 0.00 0.00 0.00 0.00 0.00 0.00 0.00 0.00 0.00 0.00
0.00 0.00 0.00 0.00 0.00 0.00 0.00 0.00 0.00 0.00 0.00 0.00 0.00 0.00 0.00 0.00 0.01 0.01 0.02 0.02 0.03 0.04 0.04 0.04 0.03 0.02 0.01 0.01 0.01 0.01 0.00 0.00 0.00 0.00 0.00 0.00 0.00 0.00 0.00 0.00 0.00 0.00 0.00 0.00 0.00 0.00 0.00 0.00 0.00
0.00 0.00 0.00 0.00 0.00 0.00 0.00 0.00 0.00 0.00 0.00 0.00 0.00 0.00 0.00 0.00 0.01 0.01 0.02 0.02 0.03 0.04 0.04 0.03 0.03 0.02 0.03 0.03 0.02 0.01 0.00 0.00 0.00 0.00 0.00 0.00 0.00 0.00 0.00 0.00 0.00 0.00 0.00 0.00 0.00 0.01 0.01 0.01 0.01
MSLP
1013.00 1013.40 1013.78 1014.00 1014.02 1013.81 1013.39 1012.86 1012.32 1011.89 1011.65 1011.64 1011.83 1012.16 1012.51 1012.80 1012.96 1012.98 1012.90 1012.77 1012.71 1012.77 1012.99 1013.38 1013.86 1014.37 1014.81 1015.13 1015.31 1015.36 1015.34 1015.34 1015.41 1015.59 1015.88 1016.23 1016.60 1016.92 1017.13 1017.22 1017.21 1017.16 1017.11 1017.13 1017.23 1017.42 1017.65 1017.88 1018.05
1012.98 1013.39 1013.74 1013.93 1013.89 1013.62 1013.15 1012.58 1012.02 1011.58 1011.33 1011.31 1011.48 1011.78 1012.10 1012.37 1012.51 1012.53 1012.46 1012.38 1012.37 1012.50 1012.81 1013.27 1013.84 1014.42 1014.94 1015.31 1015.54 1015.62 1015.63 1015.63 1015.69 1015.84 1016.09 1016.40 1016.71 1016.98 1017.15 1017.22 1017.20 1017.16 1017.14 1017.19 1017.33 1017.55 1017.81 1018.04 1018.19
1012.95 1013.35 1013.65 1013.78 1013.67 1013.35 1012.85 1012.27 1011.71 1011.29 1011.06 1011.05 1011.21 1011.49 1011.78 1012.01 1012.13 1012.13 1012.07 1012.01 1012.04 1012.23 1012.60 1013.13 1013.77 1014.41 1014.99 1015.43 1015.71 1015.84 1015.88 1015.90 1015.95 1016.09 1016.30 1016.56 1016.82 1017.04 1017.18 1017.23 1017.22 1017.20 1017.22 1017.31 1017.48 1017.72 1017.97 1018.19 1018.30
1012.92 1013.28 1013.52 1013.57 1013.40 1013.03 1012.52 1011.95 1011.43 1011.05 1010.87 1010.89 1011.07 1011.33 1011.60 1011.80 1011.89 1011.87 1011.80 1011.75 1011.81 1012.03 1012.43 1013.01 1013.68 1014.38 1015.00 1015.48 1015.81 1015.99 1016.08 1016.12 1016.19 1016.32 1016.50 1016.73 1016.96 1017.14 1017.26 1017.31 1017.32 1017.33 1017.38 1017.50 1017.69 1017.93 1018.16 1018.34 1018.39
1012.89 1013.19 1013.36 1013.33 1013.10 1012.70 1012.18 1011.65 1011.19 1010.88 1010.76 1010.82 1011.03 1011.30 1011.56 1011.75 1011.82 1011.79 1011.71 1011.67 1011.74 1011.96 1012.38 1012.96 1013.64 1014.34 1014.98 1015.49 1015.85 1016.08 1016.20 1016.28 1016.38 1016.51 1016.69 1016.90 1017.11 1017.28 1017.40 1017.46 1017.49 1017.53 1017.61 1017.75 1017.94 1018.16 1018.35 1018.47 1018.45
1012.86 1013.09 1013.17 1013.07 1012.78 1012.35 1011.84 1011.35 1010.96 1010.73 1010.68 1010.81 1011.05 1011.35 1011.62 1011.81 1011.88 1011.86 1011.80 1011.76 1011.83 1012.06 1012.46 1013.01 1013.66 1014.33 1014.95 1015.46 1015.83 1016.09 1016.25 1016.36 1016.49 1016.64 1016.83 1017.04 1017.25 1017.42 1017.54 1017.63 1017.68 1017.75 1017.85 1017.99 1018.17 1018.35 1018.49 1018.53 1018.45
1012.82 1012.97 1012.96 1012.77 1012.43 1011.98 1011.49 1011.04 1010.71 1010.54 1010.57 1010.75 1011.05 1011.38 1011.68 1011.89 1012.00 1012.01 1011.98 1011.98 1012.06 1012.28 1012.64 1013.15 1013.74 1014.35 1014.91 1015.39 1015.75 1016.02 1016.20 1016.35 1016.51 1016.68 1016.89 1017.11 1017.32 1017.50 1017.64 1017.73 1017.81 1017.90 1018.00 1018.14 1018.29 1018.43 1018.51 1018.49 1018.35
1012.75 1012.82 1012.71 1012.45 1012.05 1011.57 1011.09 1010.67 1010.39 1010.29 1010.36 1010.59 1010.92 1011.29 1011.63 1011.90 1012.06 1012.15 1012.18 1012.22 1012.34 1012.55 1012.88 1013.33 1013.84 1014.37 1014.86 1015.29 1015.62 1015.87 1016.07 1016.25 1016.42 1016.62 1016.84 1017.07 1017.28 1017.47 1017.61 1017.72 1017.81 1017.90 1018.00 1018.12 1018.25 1018.35 1018.38 1018.32 1018.16
1012.64 1012.62 1012.42 1012.08 1011.62 1011.13 1010.65 1010.25 1010.00 1009.92 1010.03 1010.28 1010.63 1011.03 1011.42 1011.75 1012.00 1012.17 1012.30 1012.42 1012.57 1012.80 1013.11 1013.50 1013.93 1014.37 1014.79 1015.15 1015.44 1015.67 1015.87 1016.06 1016.25 1016.46 1016.69 1016.91 1017.12 1017.30 1017.44 1017.55 1017.64 1017.73 1017.83 1017.94 1018.05 1018.13 1018.14 1018.06 1017.89
1012.49 1012.37 1012.09 1011.67 1011.18 1010.66 1010.18 1009.79 1009.55 1009.48 1009.58 1009.83 1010.19 1010.61 1011.03 1011.43 1011.77 1012.05 1012.28 1012.49 1012.71 1012.97 1013.27 1013.61 1013.97 1014.34 1014.67 1014.97 1015.22 1015.44 1015.63 1015.82 1016.01 1016.23 1016.45 1016.66 1016.86 1017.02 1017.15 1017.25 1017.34 1017.43 1017.53 1017.64 1017.74 1017.81 1017.83 1017.76 1017.62
1012.30 1012.09 1011.73 1011.27 1010.74 1010.21 1009.74 1009.36 1009.11 1009.03 1009.10 1009.32 1009.66 1010.07 1010.53 1010.98 1011.40 1011.79 1012.13 1012.44 1012.74 1013.03 1013.34 1013.65 1013.96 1014.26 1014.54 1014.78 1015.00 1015.20 1015.39 1015.57 1015.77 1015.98 1016.18 1016.38 1016.55 1016.69 1016.80 1016.89 1016.98 1017.07 1017.18 1017.30 1017.41 1017.50 1017.53 1017.50 1017.40
1012.08 1011.80 1011.39 1010.90 1010.37 1009.85 1009.39 1009.02 1008.77 1008.66 1008.69 1008.86 1009.15 1009.54 1010.00 1010.49 1010.98 1011.45 1011.89 1012.30 1012.67 1013.01 1013.33 1013.63 1013.91 1014.17 1014.41 1014.62 1014.82 1015.01 1015.20 1015.39 1015.58 1015.78 1015.97 1016.14 1016.29 1016.41 1016.51 1016.59 1016.68 1016.78 1016.90 1017.03 1017.17 1017.28 1017.35 1017.36 1017.30
1011.87 1011.54 1011.11 1010.62 1010.12 1009.64 1009.22 1008.86 1008.60 1008.46 1008.44 1008.54 1008.78 1009.12 1009.56 1010.07 1010.60 1011.14 1011.66 1012.14 1012.57 1012.95 1013.29 1013.59 1013.85 1014.10 1014.32 1014.53 1014.73 1014.93 1015.12 1015.32 1015.52 1015.70 1015.88 1016.03 1016.16 1016.27 1016.35 1016.44 1016.53 1016.64 1016.78 1016.94 1017.10 1017.24 1017.33 1017.37 1017.35
1011.71 1011.35 1010.93 1010.49 1010.04 1009.63 1009.26 1008.94 1008.68 1008.50 1008.42 1008.46 1008.62 1008.91 1009.31 1009.81 1010.37 1010.95 1011.51 1012.04 1012.52 1012.93 1013.29 1013.59 1013.86 1014.10 1014.33 1014.55 1014.77 1014.99 1015.20 1015.42 1015.62 1015.80 1015.97 1016.11 1016.23 1016.33 1016.42 1016.51 1016.61 1016.74 1016.89 1017.06 1017.23 1017.38 1017.49 1017.54 1017.54
1011.61 1011.27 1010.89 1010.52 1010.16 1009.83 1009.52 1009.24 1008.98 1008.77 1008.63 1008.59 1008.68 1008.91 1009.27 1009.75 1010.32 1010.92 1011.52 1012.08 1012.58 1013.01 1013.37 1013.68 1013.96 1014.21 1014.46 1014.71 1014.96 1015.20 1015.45 1015.68 1015.89 1016.08 1016.24 1016.38 1016.49 1016.59 1016.69 1016.79 1016.91 1017.04 1017.20 1017.37 1017.54 1017.68 1017.78 1017.82 1017.80
1011.59 1011.29 1010.99 1010.71 1010.45 1010.21 1009.96 1009.70 1009.43 1009.18 1008.98 1008.87 1008.90 1009.07 1009.40 1009.87 1010.44 1011.06 1011.68 1012.26 1012.77 1013.21 1013.58 1013.89 1014.18 1014.45 1014.72 1014.99 1015.28 1015.56 1015.83 1016.08 1016.30 1016.49 1016.66 1016.80 1016.92 1017.03 1017.13 1017.25 1017.37 1017.51 1017.66 1017.81 1017.95 1018.06 1018.13 1018.13 1018.08
1011.64 1011.41 1011.21 1011.03 1010.86 1010.69 1010.48 1010.23 1009.93 1009.62 1009.36 1009.18 1009.15 1009.29 1009.60 1010.08 1010.66 1011.31 1011.96 1012.56 1013.08 1013.52 1013.89 1014.21 1014.50 1014.78 1015.07 1015.38 1015.69 1016.01 1016.30 1016.57 1016.80 1016.99 1017.16 1017.30 1017.42 1017.54 1017.66 1017.79 1017.92 1018.05 1018.18 1018.30 1018.39 1018.45 1018.46 1018.42 1018.31
1011.73 1011.59 1011.49 1011.41 1011.33 1011.20 1010.99 1010.71 1010.35 1009.97 1009.62 1009.38 1009.31 1009.43 1009.76 1010.27 1010.91 1011.60 1012.29 1012.92 1013.46 1013.91 1014.28 1014.59 1014.88 1015.17 1015.48 1015.81 1016.15 1016.48 1016.79 1017.07 1017.30 1017.50 1017.66 1017.80 1017.93 1018.06 1018.20 1018.33 1018.46 1018.58 1018.69 1018.76 1018.81 1018.81 1018.75 1018.65 1018.49
1011.83 1011.79 1011.79 1011.80 1011.76 1011.64 1011.40 1011.04 1010.59 1010.10 1009.67 1009.38 1009.28 1009.42 1009.79 1010.37 1011.08 1011.86 1012.61 1013.29 1013.86 1014.32 1014.68 1014.99 1015.27 1015.56 1015.88 1016.22 1016.58 1016.92 1017.25 1017.53 1017.76 1017.95 1018.11 1018.25 1018.39 1018.52 1018.67 1018.81 1018.94 1019.06 1019.13 1019.17 1019.16 1019.11 1019.00 1018.84 1018.64
1011.88 1011.96 1012.06 1012.12 1012.11 1011.95 1011.64 1011.17 1010.60 1010.00 1009.47 1009.12 1009.02 1009.19 1009.64 1010.32 1011.15 1012.02 1012.87 1013.61 1014.22 1014.70 1015.06 1015.36 1015.63 1015.91 1016.22 1016.57 1016.93 1017.29 1017.61 1017.90 1018.13 1018.31 1018.47 1018.61 1018.75 1018.90 1019.05 1019.20 1019.34 1019.45 1019.51 1019.52 1019.47 1019.37 1019.22 1019.02 1018.79
1011.84 1012.03 1012.22 1012.34 1012.32 1012.12 1011.71 1011.11 1010.40 1009.67 1009.06 1008.66 1008.56 1008.79 1009.34 1010.14 1011.10 1012.10 1013.05 1013.87 1014.53 1015.02 1015.39 1015.66 1015.91 1016.18 1016.48 1016.82 1017.18 1017.54 1017.88 1018.17 1018.40 1018.59 1018.74 1018.88 1019.02 1019.18 1019.34 1019.51 1019.66 1019.77 1019.83 1019.82 1019.75 1019.62 1019.45 1019.23 1018.99
1011.69 1011.99 1012.27 1012.43 1012.40 1012.14 1011.62 1010.90 1010.05 1009.21 1008.52 1008.09 1008.00 1008.30 1008.95 1009.89 1010.98 1012.11 1013.17 1014.07 1014.77 1015.28 1015.64 1015.90 1016.12 1016.36 1016.64 1016.98 1017.34 1017.72 1018.06 1018.36 1018.60 1018.79 1018.95 1019.09 1019.24 1019.40 1019.58 1019.76 1019.92 1020.03 1020.10 1020.09 1020.02 1019.89 1019.71 1019.49 1019.25
1011.41 1011.82 1012.17 1012.38 1012.35 1012.04 1011.44 1010.61 1009.66 1008.72 1007.97 1007.52 1007.46 1007.83 1008.59 1009.64 1010.86 1012.11 1013.26 1014.22 1014.97 1015.48 1015.83 1016.06 1016.26 1016.47 1016.74 1017.07 1017.45 1017.83 1018.19 1018.51 1018.77 1018.97 1019.14 1019.28 1019.43 1019.60 1019.78 1019.96 1020.13 1020.26 1020.33 1020.33 1020.27 1020.14 1019.96 1019.75 1019.52
1011.01 1011.51 1011.95 1012.20 1012.18 1011.85 1011.20 1010.30 1009.28 1008.29 1007.50 1007.05 1007.03 1007.46 1008.30 1009.45 1010.77 1012.11 1013.33 1014.35 1015.12 1015.64 1015.97 1016.18 1016.36 1016.55 1016.81 1017.14 1017.52 1017.93 1018.31 1018.66 1018.94 1019.15 1019.32 1019.47 1019.62 1019.77 1019.95 1020.12 1020.28 1020.41 1020.49 1020.50 1020.44 1020.32 1020.15 1019.95 1019.73
1010.52 1011.10 1011.60 1011.91 1011.92 1011.59 1010.93 1010.01 1008.96 1007.95 1007.15 1006.71 1006.72 1007.20 1008.10 1009.32 1010.71 1012.11 1013.39 1014.44 1015.22 1015.75 1016.07 1016.27 1016.43 1016.61 1016.87 1017.20 1017.60 1018.03 1018.45 1018.82 1019.11 1019.34 1019.52 1019.66 1019.78 1019.91 1020.06 1020.21 1020.36 1020.47 1020.53 1020.54 1020.48 1020.36 1020.20 1020.01 1019.81
1009.99 1010.62 1011.17 1011.52 1011.57 1011.27 1010.63 1009.72 1008.68 1007.69 1006.91 1006.49 1006.53 1007.04 1007.97 1009.23 1010.65 1012.09 1013.39 1014.46 1015.26 1015.80 1016.13 1016.33 1016.48 1016.67 1016.94 1017.28 1017.70 1018.15 1018.59 1018.98 1019.30 1019.53 1019.69 1019.81 1019.90 1020.00 1020.10 1020.21 1020.31 1020.39 1020.43 1020.41 1020.34 1020.22 1020.06 1019.87 1019.67
1009.49 1010.13 1010.70 1011.08 1011.16 1010.89 1010.28 1009.41 1008.41 1007.45 1006.70 1006.31 1006.36 1006.89 1007.83 1009.09 1010.53 1011.97 1013.28 1014.38 1015.20 1015.77 1016.12 1016.34 1016.53 1016.73 1017.02 1017.38 1017.82 1018.29 1018.74 1019.14 1019.45 1019.68 1019.82 1019.90 1019.95 1019.98 1020.03 1020.07 1020.12 1020.15 1020.15 1020.11 1020.01 1019.87 1019.70 1019.50 1019.30
1009.08 1009.69 1010.23 1010.60 1010.68 1010.44 1009.86 1009.04 1008.09 1007.17 1006.46 1006.09 1006.16 1006.68 1007.62 1008.86 1010.29 1011.73 1013.06 1014.17 1015.03 1015.64 1016.05 1016.32 1016.54 1016.79 1017.10 1017.48 1017.93 1018.40 1018.86 1019.25 1019.55 1019.75 1019.86 1019.89 1019.88 1019.86 1019.84 1019.82 1019.81 1019.78 1019.74 1019.65 1019.53 1019.36 1019.17 1018.96 1018.75
1008.83 1009.35 1009.83 1010.14 1010.19 1009.94 1009.38 1008.59 1007.69 1006.82 1006.15 1005.81 1005.88 1006.39 1007.31 1008.53 1009.93 1011.37 1012.71 1013.86 1014.77 1015.45 1015.92 1016.26 1016.54 1016.83 1017.17 1017.56 1018.01 1018.47 1018.91 1019.28 1019.55 1019.71 1019.78 1019.77 1019.71 1019.63 1019.55 1019.47 1019.41 1019.34 1019.25 1019.13 1018.98 1018.79 1018.57 1018.35 1018.12
1008.78 1009.17 1009.53 1009.74 1009.72 1009.43 1008.87 1008.11 1007.25 1006.43 1005.80 1005.49 1005.57 1006.07 1006.96 1008.15 1009.53 1010.96 1012.32 1013.51 1014.48 1015.23 1015.78 1016.20 1016.54 1016.87 1017.22 1017.62 1018.05 1018.49 1018.88 1019.21 1019.45 1019.57 1019.60 1019.55 1019.45 1019.33 1019.21 1019.10 1019.00 1018.90 1018.79 1018.65 1018.47 1018.26 1018.02 1017.78 1017.53
Thickness
5784 5789 5794 5794 5789 5789 5795 5803 5808 5807 5809 5816 5815 5810 5802 5796 5789 5777 5791 5798 5795 5790 5782 5771 5767 5764 5761 5759 5758 5757 5755 5753 5751 5749 5747 5746 5745 5744 5743 5742 5741 5741 5740 5740 5739 5739 5738 5738 5738
5788 5790 5789 5789 5782 5786 5795 5805 5805 5809 5813 5816 5811 5804 5798 5795 5796 5792 5792 5792 5790 5785 5779 5773 5764 5761 5758 5756 5754 5753 5751 5749 5746 5744 5743 5741 5740 5739 5738 5737 5737 5736 5736 5735 5734 5734 5733 5733 5732
5789 5790 5786 5785 5783 5791 5796 5806 5810 5812 5814 5811 5806 5805 5798 5792 5793 5792 5793 5791 5787 5782 5777 5769 5763 5759 5756 5754 5752 5750 5748 5745 5743 5741 5740 5738 5736 5735 5734 5733 5733 5732 5732 5731 5730 5729 5729 5728 5728
5788 5784 5785 5779 5783 5799 5805 5810 5814 5808 5809 5811 5806 5797 5799 5798 5797 5797 5792 5790 5785 5780 5776 5767 5761 5758 5755 5752 5749 5747 5745 5742 5741 5739 5737 5735 5733 5732 5731 5730 5729 5728 5728 5727 5726 5725 5725 5724 5723
5788 5784 5776 5778 5789 5803 5811 5815 5816 5808 5805 5806 5804 5795 5791 5797 5801 5797 5791 5788 5784 5780 5775 5767 5759 5756 5752 5749 5747 5744 5742 5740 5738 5736 5734 5733 5731 5730 5728 5727 5726 5725 5724 5723 5722 5722 5721 5720 5719
5781 5783 5774 5779 5792 5802 5811 5817 5816 5812 5810 5808 5804 5797 5793 5798 5795 5794 5792 5788 5785 5780 5774 5765 5756 5753 5749 5746 5744 5742 5739 5737 5735 5733 5732 5730 5728 5727 5725 5724 5723 5722 5721 5720 5719 5718 5717 5716 5716
5780 5780 5782 5791 5792 5797 5808 5818 5814 5813 5809 5809 5812 5797 5794 5795 5796 5795 5792 5788 5785 5780 5774 5766 5758 5752 5747 5744 5741 5739 5736 5734 5733 5731 5729 5727 5725 5724 5722 5721 5720 5719 5718 5717 5716 5715 5714 5713 5712
5790 5785 5783 5789 5789 5797 5812 5817 5820 5818 5814 5821 5815 5799 5794 5796 5797 5794 5790 5785 5782 5777 5773 5768 5762 5756 5749 5744 5739 5736 5734 5732 5730 5728 5726 5725 5723 5722 5720 5719 5716 5715 5714 5713 5712 5711 5710 5709 5708
5787 5778 5782 5790 5792 5800 5814 5814 5820 5827 5819 5813 5815 5812 5811 5805 5797 5790 5784 5780 5776 5772 5769 5766 5762 5755 5752 5747 5739 5734 5731 5729 5727 5726 5723 5723 5725 5724 5720 5716 5713 5711 5710 5708 5707 5706 5705 5705 5704
5781 5778 5789 5797 5801 5805 5812 5815 5817 5813 5807 5804 5806 5808 5809 5800 5793 5787 5782 5777 5773 5768 5766 5765 5760 5754 5751 5747 5739 5737 5734 5730 5729 5728 5725 5724 5722 5720 5717 5711 5709 5707 5705 5704 5703 5702 5702 5702 5704
5783 5784 5792 5798 5805 5807 5809 5815 5821 5811 5804 5808 5806 5804 5802 5796 5791 5788 5785 5780 5776 5771 5765 5764 5759 5754 5751 5746 5741 5738 5735 5730 5728 5725 5722 5720 5718 5717 5715 5713 5709 5706 5704 5704 5701 5701 5701 5700 5698
5781 5786 5791 5797 5804 5804 5807 5815 5815 5816 5819 5828 5824 5814 5803 5795 5792 5789 5786 5782 5777 5772 5766 5763 5758 5752 5748 5746 5741 5737 5734 5730 5729 5723 5720 5719 5717 5714 5712 5709 5707 5705 5704 5700 5699 5697 5696 5693 5692
5775 5783 5791 5797 5802 5805 5806 5810 5813 5817 5826 5826 5823 5812 5803 5798 5794 5791 5789 5783 5777 5770 5764 5760 5755 5749 5744 5740 5738 5736 5733 5730 5725 5721 5718 5715 5715 5712 5710 5705 5702 5701 5700 5698 5694 5693 5689 5687 5686
5781 5782 5786 5793 5798 5801 5801 5806 5808 5811 5818 5816 5811 5807 5804 5800 5796 5790 5784 5778 5773 5767 5762 5759 5753 5747 5741 5737 5734 5732 5730 5723 5723 5718 5715 5711 5711 5708 5705 5702 5697 5696 5693 5691 5687 5685 5682 5681 5678
5774 5771 5779 5788 5793 5797 5799 5790 5798 5806 5810 5806 5805 5804 5802 5800 5796 5789 5782 5775 5770 5763 5758 5754 5750 5745 5740 5736 5733 5729 5726 5721 5718 5713 5709 5706 5704 5701 5699 5697 5693 5689 5685 5681 5679 5677 5674 5671 5668
5767 5763 5764 5783 5787 5791 5787 5782 5793 5801 5800 5798 5800 5801 5797 5796 5793 5788 5781 5772 5766 5760 5754 5750 5748 5742 5736 5732 5727 5725 5721 5716 5712 5708 5704 5700 5697 5694 5691 5690 5686 5680 5678 5675 5672 5669 5667 5663 5659
5756 5756 5763 5775 5780 5783 5782 5785 5785 5793 5793 5792 5794 5795 5791 5788 5787 5782 5776 5767 5760 5755 5749 5745 5742 5737 5732 5726 5721 5716 5711 5707 5704 5700 5697 5692 5689 5686 5683 5679 5674 5671 5669 5665 5662 5659 5654 5651 5646
5752 5756 5761 5766 5771 5770 5770 5775 5778 5784 5786 5788 5790 5790 5786 5782 5778 5774 5767 5761 5754 5749 5744 5739 5734 5728 5724 5719 5713 5708 5703 5699 5694 5690 5686 5682 5679 5676 5673 5669 5663 5661 5659 5653 5648 5643 5639 5635 5631
5747 5745 5749 5759 5764 5758 5760 5764 5770 5775 5777 5781 5783 5783 5780 5776 5771 5764 5757 5752 5747 5742 5736 5731 5727 5720 5716 5711 5707 5700 5695 5690 5685 5680 5675 5671 5667 5664 5660 5658 5651 5648 5645 5639 5636 5631 5628 5624 5619
5734 5731 5739 5751 5755 5749 5751 5755 5765 5769 5771 5776 5776 5776 5774 5768 5758 5751 5747 5743 5739 5733 5728 5723 5718 5713 5709 5703 5698 5692 5685 5679 5674 5668 5663 5659 5655 5651 5648 5643 5641 5635 5631 5626 5621 5616 5613 5611 5606
5727 5729 5736 5740 5748 5747 5741 5744 5756 5763 5766 5768 5771 5773 5773 5765 5754 5744 5739 5734 5730 5725 5721 5716 5709 5704 5699 5693 5687 5681 5675 5670 5664 5658 5653 5648 5643 5639 5634 5631 5627 5622 5620 5616 5608 5603 5599 5596 5591
5721 5736 5734 5732 5729 5735 5738 5729 5757 5757 5756 5760 5765 5767 5767 5761 5751 5741 5733 5726 5721 5716 5711 5706 5700 5695 5689 5684 5680 5675 5670 5664 5655 5649 5643 5637 5631 5627 5623 5618 5613 5609 5606 5600 5595 5591 5583 5578 5575
5726 5736 5731 5728 5725 5724 5729 5720 5745 5752 5747 5759 5765 5764 5761 5754 5744 5733 5726 5719 5712 5706 5701 5695 5690 5684 5679 5675 5669 5664 5659 5652 5645 5638 5630 5626 5621 5615 5610 5605 5600 5595 5591 5584 5577 5571 5566 5562 5557
5730 5724 5722 5722 5721 5707 5724 5722 5732 5751 5748 5760 5767 5761 5753 5745 5734 5723 5715 5708 5701 5696 5690 5685 5679 5673 5668 5663 5658 5653 5646 5640 5634 5627 5621 5617 5611 5604 5598 5592 5586 5581 5576 5569 5562 5555 5551 5544 5537
5719 5706 5698 5701 5704 5712 5736 5723 5733 5754 5757 5760 5760 5756 5747 5736 5724 5713 5704 5697 5691 5685 5679 5674 5668 5661 5656 5651 5646 5641 5634 5629 5623 5617 5610 5605 5601 5594 5584 5579 5572 5567 5560 5553 5546 5540 5535 5529 5521
5714 5709 5694 5691 5704 5721 5730 5717 5738 5751 5752 5753 5754 5751 5741 5728 5718 5707 5699 5691 5684 5676 5669 5664 5658 5651 5645 5640 5634 5628 5623 5620 5613 5603 5598 5592 5586 5579 5569 5563 5558 5552 5545 5540 5533 5528 5523 5516 5509
5712 5711 5719 5704 5700 5696 5712 5728 5738 5743 5742 5744 5744 5741 5732 5720 5710 5700 5691 5684 5676 5667 5660 5654 5648 5641 5636 5630 5623 5616 5611 5605 5598 5590 5584 5579 5570 5564 5557 5550 5544 5538 5532 5526 5520 5517 5509 5504 5499
5722 5721 5710 5695 5680 5681 5700 5713 5726 5734 5738 5741 5738 5734 5726 5713 5701 5691 5683 5675 5667 5659 5651 5643 5638 5632 5625 5619 5614 5607 5600 5592 5585 5579 5571 5564 5556 5549 5543 5538 5532 5526 5521 5515 5509 5505 5501 5494 5489
5707 5705 5703 5703 5703 5690 5690 5711 5741 5736 5736 5735 5736 5734 5724 5709 5695 5684 5676 5667 5657 5648 5640 5633 5628 5622 5616 5610 5602 5595 5588 5580 5573 5566 5559 5551 5544 5537 5532 5527 5521 5516 5511 5505 5499 5495 5489 5485 5481
5713 5710 5705 5689 5691 5697 5691 5706 5739 5732 5731 5729 5729 5727 5719 5703 5690 5678 5668 5657 5647 5638 5631 5625 5619 5613 5605 5598 5590 5583 5575 5568 5561 5555 5547 5540 5533 5527 5522 5517 5512 5507 5502 5496 5491 5486 5481 5476 5472